sat.trackr.live / text

‹ back to catalog

STARLINK-36385

NORAD 67717 · 2026-025AA

PAYLOAD ACTIVE UNKNOWN

§ Identity

Operator
Country
US
Launch date
2026-02-07
Launch site
AFWTR
Launch vehicle
Mass (kg)
RCS (m²)

Purposes: comms

External: N2YO · Heavens-Above · Gunter

§ Orbital elements

Epoch: 2026-09-19T13:20:24.858528Z

Period
93.91 min
Inclination
97.2883°
Eccentricity
0.0000491
Mean motion
15.33453413 rev/d
Perigee alt
465.2 km
Apogee alt
465.9 km
Semi-major
6,843.7 km
B*
5.4869e-4
RAAN
12.5147°
Arg perigee
93.0269°
Mean anomaly
267.1030°
Rev number
3,572

§ Raw data

STARLINK-363851 67717U 26025AA  26262.55584327  .00017685  00000+0  54869-3 0  99912 67717  97.2883  12.5147 0000491  93.0269 267.1030 15.33453413 35728

JSON: /api/v1/satellites/67717 · /tle

For live sub-satellite position, see the globe view (requires WebGL).

§ Visibility from observer

Set your observer location to see the next 7 days of passes ≥ 10°. The values pass through the URL so the page stays shareable.

No JS? Fill the form by hand. The geolocation button needs JavaScript.